[[{"header":{"parameterUnit":"m.s-1","parameterCategory":1,"la1":30.2991,"la2":30.254,"lo1":-89.0895,"lo2":-89.0444,"dy":0.0017,"dx":0.0017,"nx":28,"ny":28,"refTime":"2025-12-18T03:00:00:Z","depth":0,"parameterNumber":2,"parameterNumberName":"U-component_of_WINDS"},"data":[0,0,0,0,0,0,0,0,0,0,0,0,0,0,0,0,0,0,0,0,0,0,0,0,0,0,0,0,0,0,0,0,0,0,0,0,0,0,0,0,0,0,0,0,0,0,0,0,0,0,0,0,0,0,0,0,0,0,-2.4563,-2.4565,0,-2.4693,-2.4694,-2.4696,-2.4636,-2.4632,-2.4629,-2.4626,-2.4774,-2.478,-2.4787,0,0,0,0,0,0,0,0,0,0,0,0,0,-2.4279,-2.4285,-2.4563,-2.4565,-2.4566,-2.4693,-2.4694,-2.4696,-2.4636,-2.4632,-2.4628,-2.4624,-2.4771,-2.478,-2.4788,0,0,0,0,0,0,0,0,0,0,0,0,0,-2.4406,-2.4287,-2.4563,-2.4551,-2.4552,-2.4692,-2.4694,-2.4697,-2.4637,-2.4632,-2.4627,-2.4623,-2.4769,-2.4779,-2.4789,-2.4953,0,0,-2.4821,-2.4826,0,0,0,0,0,0,0,0,-2.4399,-2.4416,-2.4551,-2.4552,-2.4553,-2.4643,-2.4648,-2.4783,-2.4638,-2.4605,-2.4626,-2.462,-2.4735,-2.4748,-2.4784,-2.496,-2.4967,-2.4822,-2.4829,-2.4833,-2.4836,0,0,0,0,0,0,0,-2.439,-2.441,-2.4615,-2.4554,-2.4555,-2.4545,-2.4557,-2.4674,-2.4697,-2.4608,-2.4603,-2.4619,-2.4735,-2.4774,-2.4787,-2.4969,-2.4822,-2.4831,-2.4838,-2.4842,-2.5291,-2.5296,0,0,0,0,0,0,-2.4379,-2.4403,-2.4611,-2.4619,-2.4461,-2.4554,-2.4568,-2.4619,-2.4695,-2.4702,-2.4623,-2.4616,-2.4758,-2.4775,-2.4792,-2.4992,-2.4833,-2.4843,-2.4849,-2.5285,-2.5292,-2.5298,0,0,0,0,0,0,-2.4373,-2.4398,-2.4606,-2.451,-2.4535,-2.4564,-2.4622,-2.4624,-2.4663,-2.4707,-2.4712,-2.4658,-2.4755,-2.4777,-2.4913,-2.4996,-2.4848,-2.4857,-2.5278,-2.5287,-2.5295,-2.5391,0,0,0,0,0,0,-2.4365,-2.4396,-2.4456,-2.4511,-2.4541,-2.4721,-2.4627,-2.463,-2.468,-2.4671,-2.4741,-2.4748,-2.4753,-2.4898,-2.4924,-2.5008,-2.4865,-2.5271,-2.5282,-2.5292,-2.5381,-2.5402,-2.542,0,0,0,0,0,-2.4356,-2.448,-2.4459,-2.4484,-2.4614,-2.4725,-2.4743,-2.4742,-2.4686,-2.4749,-2.4777,-2.4745,-2.4982,-2.4912,-2.4941,-2.5029,-2.5266,-2.5279,-2.5291,-2.5372,-2.5398,-2.5419,0,0,0,0,0,0,-2.4439,-2.4487,-2.4464,-2.4609,-2.4663,-2.4715,-2.4793,-2.4769,-2.4843,-2.4833,-2.4833,-2.4849,-2.4991,-2.5024,-2.4945,-2.5194,-2.5116,-2.5135,-2.5168,-2.5192,-2.5211,-2.5203,-2.4874,0,0,0,0,0,-2.4472,-2.4553,-2.4594,-2.4719,-2.4746,-2.4765,-2.4814,-2.4808,-2.4866,-2.489,-2.4928,-2.499,-2.5078,-2.5136,-2.522,-2.5384,-2.5401,-2.5459,-2.5479,-2.5494,-2.5512,-2.5605,-2.5633,-2.5339,-2.5339,-2.5339,0,0,-2.4546,-2.4583,-2.4635,-2.4736,-2.4777,-2.4866,-2.4785,-2.4882,-2.495,-2.4906,-2.5037,-2.5067,-2.5136,-2.5288,-2.5357,-2.5319,-2.5596,-2.551,-2.5523,-2.5532,-2.5621,-2.5649,-2.5674,-2.5348,-2.5346,-2.5345,0,0,-2.4726,-2.476,-2.4868,-2.491,-2.4971,-2.4983,-2.5009,-2.5065,-2.5082,-2.5212,-2.5181,-2.5264,-2.5415,-2.5467,-2.5513,-2.5712,-2.5688,-2.574,-2.5843,-2.5934,-2.5957,-2.5978,-2.6053,-2.608,-2.5757,-2.5757,-2.5757,0,-2.4811,-2.4939,-2.4929,-2.5028,-2.5076,-2.5034,-2.5148,-2.5191,-2.5279,-2.5315,-2.527,-2.546,-2.5504,-2.5668,-2.5717,-2.5754,-2.5789,-2.5734,-2.5954,-2.5974,-2.5994,-2.6066,-2.6093,-2.5763,-2.5762,-2.5762,-2.5761,0,-2.5043,-2.5133,-2.5214,-2.5294,-2.5351,-2.5457,-2.5468,-2.5527,-2.5517,-2.5535,-2.5671,-2.5721,-2.5815,-2.5853,-2.5846,-2.6018,-2.5994,-2.5951,-2.5874,-2.6028,-2.6096,-2.6123,-2.5772,-2.577,-2.5768,-2.5766,0,0,-2.5281,-2.5352,-2.5383,-2.542,-2.5485,-2.5557,-2.5663,-2.575,-2.5803,-2.5866,-2.5959,-2.6087,-2.6049,-2.6101,-2.6099,-2.6178,-2.6338,-2.6127,-2.6129,-2.6168,-2.6537,-2.657,-2.6602,-2.632,-2.6325,-2.6329,-2.6532,0,-2.5468,-2.5648,-2.5642,-2.5813,-2.5898,-2.586,-2.5954,-2.6007,-2.6027,-2.6107,-2.6131,-2.6223,-2.6163,-2.6195,-2.6271,-2.6302,-2.6413,-2.6287,-2.6413,-2.6417,-2.64,-2.6637,-2.6672,-2.6861,-2.6558,-2.6563,-2.6566,0,-2.5711,-2.5776,-2.5954,-2.6007,-2.6043,-2.6126,-2.6207,-2.6281,-2.6342,-2.6352,-2.641,-2.6395,-2.6509,-2.6426,-2.6585,-2.65,-2.6551,-2.6575,-2.6582,-2.6597,-2.6503,-2.6662,-2.6921,-2.6951,-2.6607,-2.6603,-2.66,0,-2.5871,-2.6004,-2.6128,-2.616,-2.6225,-2.6285,-2.6316,-2.6371,-2.6424,-2.6497,-2.6532,-2.6619,-2.6667,-2.6737,-2.6749,-2.6686,-2.6911,-2.6827,-2.6927,-2.6927,-2.6979,-2.6976,-2.7254,-2.7006,-2.7005,-2.7005,-2.7004,0,-2.6082,-2.6194,-2.62,-2.6278,-2.6403,-2.6397,-2.6523,-2.6549,-2.6598,-2.6684,-2.6657,-2.6739,-2.6747,-2.6834,-2.6844,-2.6977,-2.6999,-2.7014,-2.7016,-2.7018,-2.7017,-2.7055,-2.7044,-2.7012,-2.7011,-2.7009,-2.7008,0,-2.6284,-2.6292,-2.6425,-2.6474,-2.6489,-2.658,-2.6624,-2.6701,-2.6717,-2.6826,-2.6851,-2.688,-2.698,-2.6997,-2.7116,-2.7123,-2.7284,-2.727,-2.7262,-2.7261,-2.7362,-2.7354,-2.7676,-2.772,-2.744,-2.7442,-2.7444,0,-2.642,-2.6504,-2.6561,-2.6613,-2.6646,-2.6732,-2.6785,-2.6783,-2.6841,-2.6917,-2.6986,-2.7082,-2.7159,-2.7322,-2.7357,-2.7449,-2.744,-2.7547,-2.7455,-2.7455,-2.7447,-2.7443,-2.7454,-2.7566,-2.7569,-2.7572,-2.7574,0,-2.6663,-2.6662,-2.6737,-2.6815,-2.6878,-2.694,-2.6999,-2.7045,-2.7052,-2.712,-2.7219,-2.7278,-2.7398,-2.7496,-2.7587,-2.7625,-2.7604,-2.7602,-2.7631,-2.7636,-2.7629,-2.7638,-2.7314,-2.7596,-2.7593,-2.7592,-2.7591,-2.759,-2.6839,-2.6912,-2.6963,-2.7049,-2.7092,-2.7148,-2.7222,-2.7246,-2.7327,-2.7421,-2.7416,-2.7527,-2.759,-2.7709,-2.7752,-2.7843,-2.7809,-2.785,-2.7861,-2.7872,-2.7884,-2.761,-2.7859,-2.7859,-2.7858,-2.7858,-2.7857,0,-2.7083,-2.7113,-2.7191,-2.7272,-2.7341,-2.7307,-2.7371,-2.7433,-2.7528,-2.7585,-2.7661,-2.7777,-2.7872,-2.7913,-2.8008,-2.8073,-2.8066,-2.8099,-2.8096,-2.8106,-2.7906,-2.7873,-2.8103,-2.8103,-2.8103,-2.8103,-2.8103,-2.8103,-2.7218,-2.7342,-2.7348,-2.7495,-2.7526,-2.763,-2.767,-2.7723,-2.7769,-2.7898,-2.7975,-2.7999,-2.8052,-2.815,-2.8238,-2.8248,-2.8287,-2.8325,-2.8331,-2.8145,-2.812,-2.8096,-2.8066,-2.8332,-2.8332,-2.8524,-2.8526,-2.8528]},{"header":{"parameterUnit":"m.s-1","parameterCategory":1,"la1":30.2991,"la2":30.254,"lo1":-89.0895,"lo2":-89.0444,"dy":0.0017,"dx":0.0017,"nx":28,"ny":28,"refTime":"2025-12-18T03:00:00:Z","depth":0,"parameterNumber":3,"parameterNumberName":"V-component_of_WINDS"},"data":[0,0,0,0,0,0,0,0,0,0,0,0,0,0,0,0,0,0,0,0,0,0,0,0,0,0,0,0,0,0,0,0,0,0,0,0,0,0,0,0,0,0,0,0,0,0,0,0,0,0,0,0,0,0,0,0,0,0,-1.092,-1.0919,0,-1.0798,-1.0797,-1.0795,-1.0721,-1.0721,-1.072,-1.072,-1.0593,-1.059,-1.0587,0,0,0,0,0,0,0,0,0,0,0,0,0,-1.1086,-1.1083,-1.092,-1.0919,-1.0917,-1.0798,-1.0797,-1.0795,-1.0721,-1.0721,-1.072,-1.072,-1.0594,-1.059,-1.0587,0,0,0,0,0,0,0,0,0,0,0,0,0,-1.0994,-1.1083,-1.0921,-1.0866,-1.086,-1.0799,-1.0797,-1.0795,-1.0721,-1.0721,-1.072,-1.072,-1.0595,-1.0591,-1.0586,-1.0569,0,0,-1.0572,-1.057,0,0,0,0,0,0,0,0,-1.0999,-1.0988,-1.0876,-1.087,-1.0863,-1.0774,-1.0808,-1.0719,-1.0721,-1.0774,-1.072,-1.0719,-1.0654,-1.0644,-1.0622,-1.0563,-1.0557,-1.0572,-1.0569,-1.0567,-1.0566,0,0,0,0,0,0,0,-1.1006,-1.0993,-1.0872,-1.0874,-1.0866,-1.0847,-1.0833,-1.0791,-1.0718,-1.0769,-1.0764,-1.075,-1.065,-1.0627,-1.0619,-1.0556,-1.0572,-1.0568,-1.0565,-1.0563,-1.0473,-1.0474,0,0,0,0,0,0,-1.1021,-1.0999,-1.0876,-1.0868,-1.0931,-1.0844,-1.0829,-1.0803,-1.0718,-1.0705,-1.0751,-1.0747,-1.0635,-1.0624,-1.0614,-1.0587,-1.0567,-1.0563,-1.056,-1.0473,-1.0473,-1.0474,0,0,0,0,0,0,-1.1025,-1.1011,-1.0881,-1.0932,-1.0914,-1.0842,-1.0814,-1.0801,-1.0778,-1.0705,-1.0691,-1.0741,-1.0634,-1.0621,-1.058,-1.0582,-1.0561,-1.0557,-1.0473,-1.0473,-1.0474,-1.0534,0,0,0,0,0,0,-1.103,-1.1013,-1.1007,-1.0932,-1.0911,-1.085,-1.0814,-1.0799,-1.0771,-1.0765,-1.0692,-1.0679,-1.0633,-1.0588,-1.0576,-1.0575,-1.0553,-1.0472,-1.0473,-1.0473,-1.0531,-1.0536,-1.0541,0,0,0,0,0,-1.1036,-1.1028,-1.1007,-1.0992,-1.0902,-1.0851,-1.0838,-1.0786,-1.0771,-1.0763,-1.0716,-1.0681,-1.0583,-1.0584,-1.057,-1.0568,-1.0472,-1.0473,-1.0473,-1.0529,-1.0535,-1.054,0,0,0,0,0,0,-1.1105,-1.1018,-1.0993,-1.0961,-1.0914,-1.0838,-1.0827,-1.0794,-1.075,-1.0746,-1.0682,-1.0666,-1.0632,-1.0596,-1.0598,-1.0546,-1.0523,-1.0522,-1.0571,-1.0576,-1.058,-1.059,-1.0549,0,0,0,0,0,-1.1116,-1.1082,-1.1008,-1.0987,-1.0964,-1.09,-1.0875,-1.0839,-1.0787,-1.0767,-1.0716,-1.0667,-1.0624,-1.0598,-1.0555,-1.0525,-1.0508,-1.0517,-1.0522,-1.0526,-1.0525,-1.0504,-1.0507,-1.0476,-1.0476,-1.0476,0,0,-1.1139,-1.1087,-1.107,-1.0999,-1.0958,-1.0923,-1.0884,-1.0849,-1.0822,-1.0761,-1.072,-1.0681,-1.0621,-1.0586,-1.0568,-1.0555,-1.0529,-1.0527,-1.0531,-1.0527,-1.0506,-1.0509,-1.0511,-1.0477,-1.0477,-1.0477,0,0,-1.1163,-1.1121,-1.1098,-1.1058,-1.0997,-1.0954,-1.0948,-1.0877,-1.0849,-1.0807,-1.076,-1.0726,-1.0655,-1.0614,-1.0584,-1.0591,-1.0557,-1.0578,-1.0602,-1.0583,-1.0586,-1.0588,-1.0589,-1.059,-1.0578,-1.0578,-1.0578,0,-1.12,-1.1146,-1.1091,-1.1058,-1.1028,-1.0971,-1.0946,-1.0909,-1.0837,-1.0817,-1.0803,-1.0712,-1.0668,-1.0621,-1.0622,-1.06,-1.0591,-1.0587,-1.059,-1.0591,-1.0592,-1.0593,-1.0593,-1.0581,-1.058,-1.058,-1.058,0,-1.1193,-1.1157,-1.1146,-1.1077,-1.1045,-1.1017,-1.0956,-1.093,-1.0895,-1.0853,-1.081,-1.0755,-1.0699,-1.0685,-1.0651,-1.0633,-1.0627,-1.0603,-1.0579,-1.0599,-1.0598,-1.0598,-1.0585,-1.0584,-1.0583,-1.0582,0,0,-1.1259,-1.1159,-1.1155,-1.1123,-1.105,-1.102,-1.0988,-1.0934,-1.0913,-1.0864,-1.0835,-1.0775,-1.0752,-1.0718,-1.0678,-1.0662,-1.0669,-1.0639,-1.0637,-1.0646,-1.0644,-1.0662,-1.0663,-1.0646,-1.0646,-1.0646,-1.0648,0,-1.1272,-1.1213,-1.1161,-1.1121,-1.1085,-1.103,-1.1002,-1.0953,-1.0913,-1.0876,-1.083,-1.0788,-1.0761,-1.074,-1.0721,-1.0672,-1.0668,-1.0671,-1.0617,-1.0616,-1.0634,-1.0663,-1.0683,-1.0688,-1.0648,-1.0648,-1.0648,0,-1.128,-1.1234,-1.119,-1.1119,-1.1102,-1.1078,-1.1023,-1.0989,-1.0932,-1.0903,-1.0865,-1.0823,-1.0785,-1.0765,-1.0711,-1.0715,-1.0689,-1.0662,-1.0661,-1.0654,-1.0633,-1.0656,-1.0689,-1.069,-1.0647,-1.0647,-1.0647,0,-1.1331,-1.1258,-1.1222,-1.1196,-1.1112,-1.1096,-1.1061,-1.1003,-1.0973,-1.0925,-1.0904,-1.0852,-1.0823,-1.0783,-1.0728,-1.0719,-1.0679,-1.0655,-1.0653,-1.0655,-1.0648,-1.0649,-1.0676,-1.0632,-1.0632,-1.0632,-1.0632,0,-1.1351,-1.1327,-1.1243,-1.1221,-1.1191,-1.113,-1.1102,-1.1061,-1.101,-1.0978,-1.0926,-1.0897,-1.0826,-1.0787,-1.0744,-1.0705,-1.0693,-1.0667,-1.0656,-1.0672,-1.0675,-1.0654,-1.0652,-1.0632,-1.0632,-1.0632,-1.0632,0,-1.1404,-1.1347,-1.1304,-1.1228,-1.1208,-1.1189,-1.1123,-1.1099,-1.1055,-1.1014,-1.1001,-1.0932,-1.0884,-1.0824,-1.0758,-1.0728,-1.0693,-1.0676,-1.0713,-1.0706,-1.0707,-1.0708,-1.0722,-1.072,-1.0679,-1.0679,-1.0679,0,-1.142,-1.14,-1.1321,-1.1296,-1.1262,-1.1223,-1.1192,-1.113,-1.11,-1.1032,-1.1015,-1.0964,-1.0919,-1.0844,-1.0787,-1.0735,-1.0716,-1.0724,-1.0708,-1.0724,-1.0715,-1.0717,-1.0714,-1.0729,-1.073,-1.073,-1.0731,0,-1.1456,-1.1428,-1.1386,-1.1333,-1.1298,-1.1253,-1.1206,-1.1188,-1.1117,-1.1085,-1.1035,-1.1001,-1.0932,-1.088,-1.082,-1.0782,-1.0744,-1.0736,-1.0733,-1.0749,-1.0771,-1.0758,-1.0724,-1.0736,-1.0736,-1.0736,-1.0735,-1.0735,-1.149,-1.1469,-1.141,-1.1364,-1.1322,-1.1279,-1.1252,-1.1203,-1.1161,-1.1101,-1.1066,-1.1017,-1.0958,-1.0874,-1.0837,-1.0797,-1.0783,-1.0779,-1.0777,-1.0777,-1.0782,-1.0777,-1.0786,-1.0786,-1.0785,-1.0785,-1.0785,0,-1.1522,-1.1481,-1.1439,-1.1375,-1.1338,-1.1306,-1.1252,-1.1223,-1.1181,-1.1129,-1.1086,-1.1028,-1.0977,-1.0915,-1.086,-1.0839,-1.082,-1.0827,-1.0827,-1.0819,-1.0797,-1.0806,-1.0843,-1.0843,-1.0843,-1.0843,-1.0843,-1.0843,-1.1535,-1.1496,-1.1461,-1.1401,-1.1359,-1.1311,-1.1283,-1.1242,-1.1201,-1.1138,-1.1096,-1.1056,-1.0999,-1.0939,-1.0891,-1.0873,-1.0855,-1.0867,-1.0845,-1.0826,-1.0821,-1.0816,-1.0823,-1.0863,-1.0864,-1.0869,-1.0869,-1.0869]}]]